• In Belarus
  • List of Countries
  • For 7 days
  • Water Temperature
  • Satellite Maps
  • Weather Map
  • Weather Widgets
  • user-avatar
    Login

    Hourly Weather Zadovo

    Today, 19 April, Thursday

    Time Temperature Precipitation Wind Pressure Humidity
    00:00 +7°C° 0.1 mm 2 mps 745 mmHg 95%
    01:00 +7°C° 0.1 mm 3 mps 745 mmHg 95%
    02:00 +7°C° 0.1 mm 3 mps 745 mmHg 95%
    03:00 +7°C° 0 mm 3 mps 745 mmHg 93%
    04:00 +5°C° 0.1 mm 3 mps 745 mmHg 93%
    05:00 +5°C° 0.1 mm 3 mps 745 mmHg 92%
    06:00 +5°C° 0.1 mm 4 mps 745 mmHg 91%
    07:00 +6°C° 0 mm 4 mps 745 mmHg 86%
    08:00 +7°C° 0 mm 4 mps 745 mmHg 80%
    09:00 +8°C° 0 mm 5 mps 745 mmHg 75%
    10:00 +9°C° 0 mm 5 mps 745 mmHg 71%
    11:00 +10°C° 0 mm 5 mps 745 mmHg 67%
    12:00 +13°C° 0 mm 5 mps 745 mmHg 63%
    13:00 +13°C° 0 mm 6 mps 745 mmHg 63%
    14:00 +13°C° 0 mm 6 mps 745 mmHg 64%
    15:00 +13°C° 0 mm 6 mps 745 mmHg 65%
    16:00 +11°C° 0 mm 6 mps 745 mmHg 63%
    17:00 +11°C° 0 mm 6 mps 746 mmHg 61%
    18:00 +11°C° 0 mm 6 mps 746 mmHg 59%
    19:00 +10°C° 0 mm 5 mps 746 mmHg 63%
    20:00 +8°C° 0 mm 5 mps 747 mmHg 68%
    21:00 +7°C° 0 mm 5 mps 747 mmHg 73%
    22:00 +7°C° 0 mm 4 mps 748 mmHg 76%
    23:00 +6°C° 0 mm 4 mps 748 mmHg 78%

    Tomorrow, 20 April, Friday

    Time Temperature Precipitation Wind Pressure Humidity
    00:00 +5°C° 0 mm 4 mps 748 mmHg 81%
    01:00 +5°C° 0 mm 4 mps 749 mmHg 83%
    02:00 +5°C° 0 mm 3 mps 749 mmHg 86%
    03:00 +4°C° 0 mm 3 mps 749 mmHg 89%
    04:00 +4°C° 0 mm 3 mps 750 mmHg 90%
    05:00 +3°C° 0 mm 3 mps 750 mmHg 91%
    06:00 +3°C° 0 mm 3 mps 750 mmHg 92%
    07:00 +4°C° 0 mm 4 mps 751 mmHg 85%
    08:00 +4°C° 0 mm 4 mps 751 mmHg 78%
    09:00 +5°C° 0 mm 4 mps 751 mmHg 71%
    10:00 +6°C° 0 mm 4 mps 752 mmHg 67%
    11:00 +7°C° 0 mm 4 mps 752 mmHg 63%
    12:00 +7°C° 0 mm 4 mps 752 mmHg 58%
    13:00 +8°C° 0 mm 4 mps 752 mmHg 58%
    14:00 +8°C° 0 mm 4 mps 752 mmHg 58%
    15:00 +9°C° 0 mm 3 mps 752 mmHg 58%
    16:00 +8°C° 0 mm 3 mps 751 mmHg 59%
    17:00 +8°C° 0 mm 2 mps 751 mmHg 60%
    18:00 +8°C° 0 mm 2 mps 751 mmHg 61%
    19:00 +8°C° 0 mm 2 mps 750 mmHg 66%
    20:00 +8°C° 0 mm 1 mps 750 mmHg 71%
    21:00 +7°C° 0 mm 1 mps 750 mmHg 75%
    22:00 +6°C° 0.2 mm 2 mps 749 mmHg 77%
    23:00 +5°C° 0.2 mm 3 mps 748 mmHg 80%

    Day after tomorrow, 21 April, Saturday

    Time Temperature Precipitation Wind Pressure Humidity
    00:00 +5°C° 0.2 mm 4 mps 747 mmHg 82%
    01:00 +5°C° 0.5 mm 4 mps 746 mmHg 83%
    02:00 +5°C° 0.5 mm 5 mps 744 mmHg 84%
    03:00 +6°C° 0.5 mm 5 mps 743 mmHg 85%
    04:00 +6°C° 0.4 mm 5 mps 742 mmHg 86%
    05:00 +5°C° 0.4 mm 6 mps 741 mmHg 87%
    06:00 +5°C° 0.4 mm 6 mps 739 mmHg 88%
    07:00 +7°C° 0.3 mm 5 mps 738 mmHg 88%
    08:00 +8°C° 0.3 mm 5 mps 737 mmHg 88%
    09:00 +8°C° 0.3 mm 5 mps 736 mmHg 88%
    10:00 +9°C° 0.2 mm 5 mps 735 mmHg 87%
    11:00 +9°C° 0.2 mm 5 mps 734 mmHg 87%
    12:00 +9°C° 0.2 mm 6 mps 733 mmHg 86%
    13:00 +10°C° 0.4 mm 6 mps 732 mmHg 86%
    14:00 +10°C° 0.4 mm 6 mps 731 mmHg 85%
    15:00 +10°C° 0.4 mm 6 mps 730 mmHg 85%
    16:00 +9°C° 0.3 mm 7 mps 730 mmHg 81%
    17:00 +9°C° 0.3 mm 7 mps 730 mmHg 77%
    18:00 +7°C° 0.3 mm 8 mps 730 mmHg 73%
    19:00 +6°C° 0.3 mm 8 mps 730 mmHg 76%
    20:00 +5°C° 0.3 mm 9 mps 730 mmHg 79%
    21:00 +3°C° 0.3 mm 9 mps 731 mmHg 81%
    22:00 +2°C° 0.2 mm 9 mps 731 mmHg 81%
    23:00 +1°C° 0.2 mm 8 mps 732 mmHg 81%

    22 April, Sunday

    Time Temperature Precipitation Wind Pressure Humidity
    00:00 0°C° 0.2 mm 8 mps 733 mmHg 81%
    01:00 0°C° 0.1 mm 8 mps 733 mmHg 81%
    02:00 0°C° 0.1 mm 7 mps 734 mmHg 81%
    03:00 -1°C° 0.1 mm 7 mps 735 mmHg 81%
    04:00 -1°C° 0 mm 7 mps 736 mmHg 81%
    05:00 -1°C° 0 mm 7 mps 737 mmHg 80%
    06:00 -2°C° 0 mm 6 mps 737 mmHg 80%
    07:00 -2°C° 0 mm 6 mps 738 mmHg 78%
    08:00 -2°C° 0 mm 6 mps 739 mmHg 75%
    09:00 -2°C° 0 mm 6 mps 739 mmHg 73%
    10:00 -1°C° 0 mm 6 mps 740 mmHg 71%
    11:00 0°C° 0 mm 5 mps 740 mmHg 69%
    12:00 +1°C° 0 mm 5 mps 741 mmHg 67%
    13:00 +1°C° 0 mm 5 mps 741 mmHg 65%
    14:00 +1°C° 0 mm 5 mps 742 mmHg 64%
    15:00 +1°C° 0 mm 5 mps 742 mmHg 62%
    16:00 +1°C° 0 mm 5 mps 742 mmHg 61%
    17:00 +1°C° 0 mm 4 mps 743 mmHg 61%
    18:00 +1°C° 0 mm 4 mps 743 mmHg 60%
    19:00 +1°C° 0 mm 3 mps 744 mmHg 64%
    20:00 0°C° 0 mm 3 mps 744 mmHg 69%
    21:00 -1°C° 0 mm 2 mps 744 mmHg 73%
    22:00 -1°C° 0 mm 2 mps 745 mmHg 75%
    23:00 -2°C° 0 mm 2 mps 745 mmHg 77%

    23 April, Monday

    Time Temperature Precipitation Wind Pressure Humidity
    00:00 -2°C° 0 mm 2 mps 745 mmHg 80%
    01:00 -3°C° 0 mm 2 mps 746 mmHg 81%
    02:00 -3°C° 0 mm 2 mps 746 mmHg 81%
    03:00 -3°C° 0 mm 2 mps 746 mmHg 82%
    04:00 -3°C° 0 mm 2 mps 746 mmHg 81%
    05:00 -3°C° 0 mm 2 mps 747 mmHg 79%
    06:00 -3°C° 0 mm 2 mps 747 mmHg 77%
    07:00 -1°C° 0 mm 3 mps 747 mmHg 67%
    08:00 0°C° 0 mm 3 mps 747 mmHg 58%
    09:00 +1°C° 0 mm 3 mps 748 mmHg 48%
    10:00 +2°C° 0 mm 3 mps 748 mmHg 45%
    11:00 +3°C° 0 mm 3 mps 748 mmHg 43%
    12:00 +3°C° 0 mm 3 mps 748 mmHg 40%
    13:00 +4°C° 0 mm 3 mps 748 mmHg 39%
    14:00 +4°C° 0 mm 3 mps 748 mmHg 39%
    15:00 +5°C° 0 mm 3 mps 748 mmHg 38%
    16:00 +4°C° 0 mm 3 mps 748 mmHg 40%
    17:00 +5°C° 0 mm 2 mps 748 mmHg 42%
    18:00 +5°C° 0 mm 2 mps 748 mmHg 44%
    19:00 +3°C° 0 mm 2 mps 748 mmHg 50%
    20:00 +3°C° 0 mm 1 mps 748 mmHg 55%
    21:00 +1°C° 0 mm 1 mps 748 mmHg 61%
    22:00 +1°C° 0 mm 1 mps 748 mmHg 63%
    23:00 0°C° 0 mm 1 mps 748 mmHg 64%

    24 April, Tuesday

    Time Temperature Precipitation Wind Pressure Humidity
    00:00 0°C° 0 mm 1 mps 748 mmHg 65%
    01:00 0°C° 0 mm 1 mps 748 mmHg 65%
    02:00 -1°C° 0 mm 1 mps 748 mmHg 66%
    03:00 -1°C° 0 mm 1 mps 748 mmHg 66%
    04:00 0°C° 0 mm 1 mps 748 mmHg 64%
    05:00 0°C° 0 mm 1 mps 748 mmHg 63%
    06:00 0°C° 0 mm 1 mps 748 mmHg 62%
    07:00 +1°C° 0 mm 2 mps 748 mmHg 56%
    08:00 +3°C° 0 mm 2 mps 748 mmHg 50%
    09:00 +5°C° 0 mm 2 mps 748 mmHg 44%
    10:00 +6°C° 0 mm 2 mps 748 mmHg 42%
    11:00 +7°C° 0 mm 2 mps 747 mmHg 40%
    12:00 +8°C° 0 mm 3 mps 747 mmHg 38%
    13:00 +9°C° 0 mm 3 mps 747 mmHg 38%
    14:00 +9°C° 0 mm 3 mps 746 mmHg 38%
    15:00 +10°C° 0 mm 3 mps 746 mmHg 38%
    16:00 +9°C° 0 mm 3 mps 746 mmHg 41%
    17:00 +9°C° 0 mm 3 mps 745 mmHg 44%
    18:00 +9°C° 0 mm 3 mps 745 mmHg 47%
    19:00 +7°C° 0 mm 3 mps 745 mmHg 52%
    20:00 +5°C° 0 mm 4 mps 745 mmHg 57%
    21:00 +3°C° 0 mm 4 mps 745 mmHg 61%
    22:00 +3°C° 0 mm 4 mps 744 mmHg 61%
    23:00 +1°C° 0 mm 4 mps 744 mmHg 61%
    Show more